User: anonymous   Login
Location: Unspecified
(0.0000°N, 0.0000°E)
Time: 19:17:36
(UTC+00:00)
Language:

USA 223 - Orbit

View from above orbital plane
View from above orbital plane
View from above satellite
View from above satellite

Ground track
Ground track

The orbit data is extracted from the following two-line orbital elements,

1 37232U 10063A   18078.72117339 0.00000000  00000-0  00000-0 0    07
2 37232   3.0793 172.2613 0049681 119.8527 240.5641  1.00270000    06
Epoch (UTC): 19 March 2018 17:18:29
Eccentricity: 0.0049681
inclination: 3.0793°
perigee height: 35577 km
apogee height: 35996 km
right ascension of ascending node: 172.2613°
argument of perigee: 119.8527°
revolutions per day: 1.00270000
mean anomaly at epoch: 240.5641°
orbit number at epoch: 0

The dashed part of the orbit path shows where the satellite is in the earth's shadow,  

DLR